GFSNE_sfc_thetae_000.txt.gz
Theta_e
299 299 300 301 302 302 302 303 301 297 298 307 318 324 324 326 327 328 327 330 332 331 330 330 332 333 333 333 329 326 325 321 317 315 317 316 316 317
298 299 299 299 300 301 303 305 306 302 298 309 317 322 323 324 327 324 325 328 330 330 327 326 330 330 330 329 326 325 322 319 316 315 316 315 315 316
298 299 299 300 299 301 305 307 307 306 302 309 312 318 321 321 322 321 324 325 327 329 327 325 326 327 327 325 324 323 320 317 314 316 315 314 314 315
299 299 299 302 302 304 307 307 307 308 309 306 311 313 319 319 318 316 321 323 324 329 328 326 325 325 324 322 322 320 319 317 314 315 314 313 312 314
300 299 302 303 304 305 306 308 309 311 311 309 310 315 318 317 315 315 317 319 322 326 327 326 324 323 322 321 319 318 317 315 315 314 312 311 311 312
301 302 301 303 304 307 307 308 310 311 311 309 308 316 315 315 315 313 313 318 317 324 324 323 324 323 321 320 319 317 314 313 314 314 311 310 311 311
301 300 303 306 310 312 312 310 311 310 310 309 308 315 313 313 312 315 313 318 318 320 318 318 318 318 318 320 317 315 313 313 313 312 311 310 310 309
299 300 302 306 307 312 315 317 315 310 309 309 309 313 313 314 314 315 315 316 313 319 315 313 315 312 315 313 316 315 313 313 313 313 311 311 309 308
300 300 302 304 307 307 313 317 319 318 315 311 311 316 314 317 315 317 316 316 314 317 314 310 312 309 312 313 316 315 314 312 311 311 311 310 308 307
300 301 303 303 305 307 311 314 315 316 317 316 313 316 319 320 318 320 318 318 318 317 315 308 309 306 310 310 314 314 313 311 310 310 311 309 307 307
301 303 303 303 307 310 309 310 313 315 320 320 318 318 322 322 321 321 318 317 314 314 315 310 309 307 305 305 311 313 312 310 309 311 310 308 307 307
300 301 304 304 308 310 308 310 311 315 316 317 317 318 323 323 322 322 320 316 314 312 314 309 309 308 303 304 307 309 309 309 308 310 309 307 306 301
297 299 301 305 307 309 313 313 314 317 316 314 316 321 321 322 322 323 322 319 315 312 316 312 310 306 304 301 303 307 305 305 304 305 307 305 305 304
297 299 301 305 309 312 312 316 317 319 318 316 318 320 320 320 321 322 321 321 320 318 317 314 310 309 304 301 300 305 303 302 302 301 300 303 306 307
298 301 304 306 308 310 312 313 316 319 317 315 316 319 321 322 323 322 320 320 314 319 316 315 312 309 307 304 303 304 301 301 302 301 300 299 300 300
300 300 303 305 306 308 309 310 316 319 317 316 318 320 322 322 321 320 314 314 314 314 313 313 312 311 306 307 306 304 302 299 303 302 301 300 301 302
300 301 301 300 300 302 305 307 311 319 316 319 319 319 320 320 319 317 314 312 310 309 308 310 309 310 310 308 305 306 303 301 303 302 300 299 299 301
299 298 298 298 298 300 302 304 308 317 320 320 320 319 319 318 316 313 312 311 309 309 308 308 308 307 307 305 308 305 301 302 302 302 300 298 298 299
297 297 297 297 297 299 300 303 305 310 321 321 320 319 318 317 314 312 312 310 309 309 309 309 309 307 304 300 300 301 303 302 301 300 301 299 297 298
297 297 296 297 297 297 299 301 305 309 319 320 319 319 318 315 314 312 311 310 309 310 308 310 310 309 306 302 300 298 300 302 302 300 299 297 300 304
296 297 297 297 297 298 299 301 305 308 315 318 318 318 317 315 314 313 312 309 310 309 308 309 311 311 305 305 301 295 297 299 303 302 299 298 296 296
296 297 297 297 297 298 299 301 304 308 316 318 317 316 316 315 314 313 311 310 310 310 310 311 308 307 307 305 300 295 294 297 299 299 300 300 298 295
295 297 297 297 297 298 299 300 303 305 309 317 316 315 316 314 315 314 312 312 310 309 309 307 308 309 306 303 299 298 296 297 299 296 296 299 300 301

GFSNE_sfc_thetae_003.txt.gz
Theta_e
298 298 298 298 300 301 300 299 297 292 294 300 303 308 312 315 329 331 330 332 334 333 333 333 333 335 334 336 335 333 329 326 322 319 319 318 316 316
298 298 298 299 300 301 300 299 299 297 294 302 305 307 312 318 329 330 329 330 332 332 330 329 331 333 333 333 331 329 328 324 320 318 319 317 316 315
297 298 299 300 300 300 301 301 300 300 298 301 307 308 309 311 325 328 327 328 330 332 330 328 329 330 330 328 326 327 324 322 318 318 318 316 315 314
297 297 299 301 300 301 301 301 302 303 303 302 306 308 310 313 321 324 326 327 328 330 329 328 327 327 325 324 324 322 321 320 317 318 317 315 313 313
297 297 299 300 299 300 301 303 305 308 307 305 304 307 312 314 320 322 324 324 326 327 328 327 326 325 323 322 320 319 318 317 317 317 315 313 312 312
298 299 300 301 299 300 304 305 307 306 307 307 306 307 311 314 319 318 318 321 321 325 325 324 326 324 323 321 319 317 315 315 316 315 313 312 312 311
298 300 301 303 306 307 307 307 309 307 306 307 307 309 309 309 314 317 315 316 318 322 321 321 321 320 320 321 318 316 314 314 315 313 312 312 311 310
296 298 301 303 304 309 309 312 312 308 308 308 308 308 309 313 315 314 314 312 312 321 319 317 318 315 316 315 317 315 313 313 314 313 312 311 310 309
296 298 299 302 304 303 307 311 312 316 315 311 309 308 309 313 315 312 314 313 312 317 316 313 315 312 314 314 316 315 313 312 313 312 311 311 309 309
297 298 300 301 300 303 305 306 308 311 315 315 312 312 311 316 317 315 316 314 314 317 315 308 311 306 310 310 315 314 313 311 311 311 311 310 309 308
297 300 300 300 303 307 306 305 306 309 316 319 317 316 316 317 319 317 315 312 311 311 312 309 308 303 303 305 312 313 311 310 310 311 311 309 307 307
299 299 302 301 305 307 305 306 306 310 315 316 316 316 317 317 320 319 317 313 311 308 311 306 306 305 301 302 305 309 308 309 309 310 310 308 306 299
296 296 298 302 305 307 310 309 311 315 316 316 316 315 315 316 320 321 320 316 312 309 313 309 308 304 301 302 306 305 305 304 303 306 308 306 305 303
295 296 298 302 305 307 307 310 313 315 317 316 315 314 314 318 319 321 321 319 318 314 314 312 309 307 302 302 303 305 299 300 302 301 300 304 307 307
297 299 302 304 305 305 306 308 311 314 316 314 312 314 317 320 321 321 321 320 317 316 315 313 311 306 305 304 303 303 300 298 300 300 298 298 299 299
298 298 301 303 303 303 303 304 307 310 316 313 313 317 321 320 320 321 319 317 314 313 312 312 312 309 303 305 305 302 299 298 300 299 299 298 299 300
299 298 299 298 297 299 299 301 303 308 317 317 316 318 319 319 320 321 318 316 313 309 307 309 309 308 306 306 302 303 301 298 301 300 298 297 298 300
298 296 296 296 296 297 297 298 301 304 311 317 317 319 319 319 319 318 317 315 312 309 308 307 307 306 305 304 307 303 299 299 301 301 300 297 296 297
294 295 296 297 296 296 297 298 298 302 308 316 318 320 320 320 317 315 314 314 311 309 308 309 308 306 303 298 298 302 303 301 301 299 300 297 296 296
293 294 295 297 296 296 297 297 299 302 307 318 318 320 320 319 315 313 313 311 309 309 307 308 308 307 305 301 299 297 300 302 301 299 298 296 299 303
292 294 296 297 296 296 297 298 300 302 307 313 319 320 320 317 313 313 312 309 309 307 306 307 309 308 303 304 301 295 297 299 303 302 298 297 295 296
293 294 296 297 296 296 297 298 299 302 307 314 320 320 319 317 313 312 311 309 309 308 308 307 305 306 305 304 299 294 296 297 299 299 300 299 297 294
293 294 296 297 297 297 297 298 299 301 304 306 320 320 318 316 314 313 311 311 309 308 307 304 305 305 304 302 299 297 296 297 299 298 298 299 300 301

GFSNE_sfc_thetae_006.txt.gz
Theta_e
294 294 295 297 298 298 299 298 295 291 291 296 298 301 307 310 313 313 315 319 333 333 333 333 335 335 337 338 338 336 334 331 328 323 321 320 318 318
295 295 296 297 297 299 299 300 299 296 292 296 297 300 305 311 311 312 313 319 331 333 332 330 332 334 335 336 334 333 331 330 325 321 321 319 318 317
294 295 296 297 297 298 300 300 299 298 294 298 300 303 305 307 309 312 314 321 330 333 332 329 330 331 332 331 331 330 328 326 322 320 320 318 317 316
294 294 295 298 297 299 300 300 299 299 298 297 300 302 305 308 309 312 314 328 330 332 332 330 328 328 328 328 326 326 324 323 321 320 319 318 316 315
294 294 295 296 296 298 300 299 300 302 302 301 301 306 306 307 307 312 313 327 329 329 330 329 328 327 326 324 323 321 320 319 319 319 318 316 315 314
295 296 297 297 297 299 301 301 302 304 305 304 303 305 306 307 309 311 315 325 325 328 329 328 328 326 324 323 321 318 316 316 318 317 315 314 314 313
296 297 298 300 305 305 302 302 302 303 305 304 305 305 305 304 305 310 318 322 324 325 324 325 325 323 322 323 319 317 314 316 317 315 313 313 312 312
296 297 297 301 302 306 306 307 306 306 306 305 305 304 304 307 310 309 316 318 316 324 321 320 323 320 319 318 318 316 314 315 315 313 312 312 311 311
298 296 296 299 302 301 304 306 308 310 312 310 306 307 307 310 311 311 316 318 317 320 320 315 319 316 316 315 316 315 314 314 313 312 312 311 310 310
295 296 296 298 300 300 300 303 304 306 308 312 310 312 313 313 313 318 318 319 318 320 320 312 316 312 311 312 315 314 313 312 311 311 312 311 310 310
295 296 297 298 302 304 302 302 304 306 312 315 316 316 316 316 315 317 316 313 312 315 317 312 311 307 306 311 312 313 311 311 311 311 312 310 309 309
297 296 300 299 303 305 303 303 303 305 311 314 315 315 316 316 317 317 316 313 312 310 312 309 308 306 303 305 309 309 308 310 309 310 310 309 308 299
295 295 296 301 303 305 306 303 304 308 309 312 315 314 315 314 315 318 318 315 312 309 312 309 309 303 302 303 307 305 304 305 303 306 308 307 306 302
295 295 295 301 303 305 303 306 307 307 308 312 313 313 313 313 314 318 319 318 316 313 313 310 308 305 303 302 302 305 298 299 301 300 299 304 307 307
297 298 300 302 304 302 303 305 305 302 303 304 312 313 314 315 317 319 319 318 316 314 314 309 310 304 304 303 302 303 299 297 299 299 297 298 299 300
297 295 300 301 303 301 300 300 301 301 302 304 313 315 316 315 317 319 317 315 312 311 312 310 310 307 301 304 304 302 299 297 299 298 297 297 298 300
297 295 296 296 297 298 297 298 300 300 301 311 314 314 315 316 317 319 318 314 311 308 306 307 307 305 305 305 301 302 300 296 300 298 296 295 297 299
294 292 292 294 295 297 295 296 298 299 300 303 314 314 316 316 316 318 317 314 310 308 307 305 305 304 304 304 306 301 300 298 299 299 298 296 295 297
290 290 292 294 295 297 295 296 296 298 301 303 311 315 316 318 317 317 315 314 310 309 306 306 306 305 303 299 298 302 301 299 299 298 299 296 295 296
289 290 291 294 296 296 295 296 297 298 300 303 306 317 317 318 317 315 315 313 310 309 306 307 307 307 305 300 298 296 300 300 300 298 296 296 299 302
289 290 292 294 296 297 296 296 297 298 300 303 308 317 319 319 317 316 315 311 310 307 305 306 308 307 302 303 299 296 298 299 302 301 297 297 298 298
289 290 292 295 296 297 296 296 297 298 300 302 304 318 320 319 316 315 315 310 310 308 308 308 304 304 304 302 299 296 296 295 299 300 300 299 297 295
291 293 292 295 297 298 296 297 297 298 300 301 302 310 319 316 317 316 313 311 310 309 306 302 303 303 301 301 299 297 295 297 298 298 297 299 300 300

GFSNE_sfc_thetae_009.txt.gz
Theta_e
292 292 292 294 294 296 296 296 293 290 291 296 296 301 300 302 305 307 310 315 316 317 321 333 334 335 338 339 339 338 338 335 333 329 324 322 321 320
293 292 293 294 295 296 296 296 297 295 291 297 298 300 301 303 304 306 310 313 316 316 319 330 333 334 336 336 336 335 334 333 331 326 323 322 320 319
292 292 293 294 294 295 296 296 296 298 294 297 298 300 300 301 302 306 310 311 312 316 323 329 330 332 333 333 333 332 331 331 329 324 322 321 319 318
292 292 293 296 294 295 296 296 297 299 297 295 297 298 300 303 304 305 310 314 315 318 329 330 329 329 329 330 329 329 327 327 325 322 322 320 318 317
293 293 293 294 294 295 295 296 298 300 301 299 298 302 303 305 304 308 310 311 314 319 331 330 329 328 328 326 325 324 322 321 321 321 321 319 317 316
294 295 295 295 295 295 296 298 301 301 300 299 300 302 302 305 306 304 306 310 313 326 330 330 329 328 327 325 323 320 318 318 319 319 318 317 316 315
295 296 296 299 305 303 300 300 300 299 299 299 302 303 302 304 303 306 307 310 317 327 327 327 327 326 325 325 321 318 316 317 318 318 316 314 314 314
295 295 296 300 299 304 305 305 303 301 301 302 304 303 303 301 305 305 306 306 316 327 324 323 326 323 323 321 320 317 316 317 316 315 314 314 313 313
292 293 294 297 299 298 302 304 304 308 308 306 305 306 303 306 307 308 308 307 319 324 324 320 324 319 319 317 317 316 316 315 314 313 313 312 312 312
293 293 294 294 296 299 298 300 302 303 306 308 309 310 307 312 312 312 312 311 321 323 323 316 319 314 315 315 315 315 314 313 312 312 312 312 311 312
293 294 294 295 300 303 300 300 302 302 307 311 312 315 315 315 314 313 312 315 315 317 320 315 312 309 311 312 313 313 312 312 311 312 312 311 310 311
295 295 300 298 301 303 300 302 298 300 304 305 307 315 315 315 316 314 315 316 315 314 316 309 310 307 303 308 310 309 309 311 310 310 311 310 309 301
295 295 296 300 302 303 304 301 301 305 304 303 308 313 313 314 315 316 317 319 315 311 316 312 312 305 305 304 308 303 305 307 305 307 309 308 307 301
295 296 296 300 302 303 303 304 305 304 301 302 304 310 311 312 314 316 318 320 319 314 314 315 313 308 305 306 304 303 299 300 302 302 300 305 307 306
298 299 300 301 302 301 303 304 303 300 300 300 300 303 313 315 314 317 318 319 313 314 314 315 314 306 305 307 303 303 298 297 298 299 297 298 299 300
298 293 298 299 300 300 300 300 299 299 299 300 301 303 314 314 313 317 315 314 310 311 312 312 313 308 301 304 305 302 297 296 297 296 296 296 297 299
296 293 292 292 293 295 298 298 298 298 298 300 300 306 313 313 313 317 315 312 309 308 306 307 308 303 304 305 301 302 299 296 299 296 295 294 296 298
292 289 289 290 291 294 296 296 296 297 298 299 300 307 313 313 314 316 315 311 309 308 306 304 304 302 303 302 305 301 299 297 298 298 296 295 294 296
288 288 288 290 291 294 296 296 295 297 299 299 300 304 314 314 314 315 313 311 308 307 306 305 304 303 300 298 298 302 300 298 297 297 297 295 295 295
287 287 288 290 291 294 296 296 295 297 297 299 301 306 314 315 315 315 313 310 309 307 305 305 305 305 303 301 298 297 300 299 298 297 295 296 299 302
287 287 289 290 291 295 297 296 296 296 297 298 301 303 310 315 315 315 314 310 309 306 304 304 306 307 302 302 298 295 297 298 300 299 297 296 297 298
288 288 289 290 292 295 297 296 296 296 296 298 300 302 303 316 316 315 313 310 309 307 306 308 304 304 303 301 297 295 295 295 299 300 300 299 297 295
292 292 291 290 293 295 297 296 295 296 296 297 299 300 301 315 317 317 313 311 308 308 307 303 302 303 299 300 298 297 295 297 297 297 296 299 300 301

GFSNE_sfc_thetae_012.txt.gz
Theta_e
290 290 290 291 292 293 293 293 291 288 289 293 294 298 300 302 304 303 302 307 310 313 314 318 318 322 337 338 339 338 337 337 336 334 331 325 324 322
291 290 290 291 292 293 294 294 294 292 289 295 296 298 300 302 304 303 304 307 309 313 315 316 318 320 335 336 336 335 335 335 335 332 328 324 323 321
290 290 291 292 292 293 293 294 294 294 292 294 297 300 301 301 301 302 304 303 304 311 315 316 318 321 332 333 333 333 333 333 332 330 326 324 322 320
290 291 291 294 292 293 293 293 294 295 294 293 297 299 300 302 302 302 303 305 308 312 316 317 320 324 329 330 330 331 330 329 329 327 324 323 321 320
291 291 292 293 292 293 293 294 295 296 296 296 297 300 301 302 302 303 303 303 308 312 317 318 319 327 328 328 327 326 325 324 323 322 323 321 320 319
293 293 293 293 293 294 294 295 296 296 299 298 297 299 301 304 304 302 302 305 306 312 316 318 325 329 328 327 325 322 320 320 320 320 319 319 319 317
293 294 295 297 303 301 298 297 297 296 297 298 297 299 300 302 301 304 303 305 307 311 313 319 328 328 328 326 323 320 318 318 319 319 317 316 316 316
292 293 294 298 297 303 304 304 302 298 298 298 300 299 302 304 305 305 303 304 303 312 309 324 328 325 326 325 322 318 317 318 318 317 315 315 315 315
290 291 292 296 298 295 300 303 303 304 306 304 301 301 304 306 306 305 305 306 307 314 322 321 326 323 324 321 318 317 317 316 315 314 314 314 314 314
291 291 291 293 294 297 298 298 299 301 304 303 304 306 307 310 308 308 308 309 311 312 326 318 323 317 319 318 316 316 316 314 313 313 313 312 312 313
292 292 292 294 299 302 298 298 299 301 305 308 309 309 312 315 313 311 308 308 308 317 323 317 316 314 315 314 315 314 313 312 312 312 312 311 311 312
292 293 300 298 301 302 299 298 298 299 303 302 302 305 310 314 315 312 313 311 311 315 317 313 313 310 305 310 312 312 311 311 310 311 311 310 310 306
292 293 296 301 302 303 303 298 300 304 301 300 301 303 307 313 313 315 315 313 316 313 316 316 311 311 305 305 306 307 308 308 307 309 309 309 307 304
292 295 295 301 301 302 301 303 305 302 299 299 300 301 304 311 313 314 317 319 320 315 318 317 313 310 308 306 301 301 301 303 306 304 304 308 307 305
296 298 300 300 300 299 301 303 303 298 298 298 298 299 302 304 314 315 318 318 316 316 318 318 312 311 313 309 303 301 300 299 301 302 301 302 301 302
298 294 296 297 298 298 297 299 300 298 298 298 298 300 303 305 313 315 315 313 312 310 313 316 312 313 309 307 307 301 298 298 299 299 298 299 300 302
298 291 289 289 290 291 294 296 298 298 297 298 298 299 302 306 313 315 314 313 310 308 308 309 307 308 309 308 303 303 299 298 300 298 298 297 298 301
293 288 287 287 288 290 291 294 297 297 296 298 298 300 301 307 312 315 313 312 309 306 305 305 305 304 305 303 307 302 300 300 300 300 298 296 297 298
287 287 286 287 288 289 292 295 296 296 297 298 298 299 302 307 312 314 312 310 308 305 305 306 306 305 303 298 299 302 301 299 298 297 298 297 297 298
287 286 286 287 288 289 292 295 296 296 296 297 298 299 301 304 312 313 311 309 307 305 305 306 306 307 306 302 298 299 299 300 299 298 296 298 300 302
287 287 287 287 288 289 293 295 296 295 296 297 297 298 300 302 312 313 311 308 307 305 303 304 307 308 302 302 298 296 298 298 300 299 297 297 297 299
287 287 288 288 289 290 294 295 296 295 295 297 297 298 300 301 307 314 311 308 308 306 306 306 304 303 302 300 298 296 295 296 298 300 300 299 298 295
289 290 292 293 290 291 293 295 296 295 295 296 297 298 299 299 302 315 312 310 309 307 306 303 304 304 300 300 298 296 294 296 297 297 297 299 300 300

GFSNE_sfc_thetae_018.txt.gz
Theta_e
304 304 302 302 302 302 301 300 297 293 295 300 301 305 305 306 308 307 307 310 310 310 311 311 312 314 314 316 317 317 320 322 327 338 339 338 336 330
303 302 302 302 302 302 301 301 301 298 297 301 302 304 305 305 307 307 307 311 310 311 311 311 312 312 313 314 315 315 319 320 325 337 337 337 333 328
302 302 301 302 301 301 302 302 302 302 299 301 303 304 303 304 305 306 307 307 309 311 311 311 311 311 312 312 315 315 318 319 323 336 336 334 331 327
301 301 300 300 300 302 303 302 302 302 301 299 301 302 303 305 305 305 306 307 306 309 310 311 311 311 311 312 315 315 318 317 321 334 334 331 330 326
301 300 299 300 301 302 302 302 302 301 301 301 301 303 304 305 305 304 304 305 305 309 311 311 311 311 311 313 314 314 318 318 321 330 328 328 327 325
300 300 300 301 302 302 301 301 301 301 300 301 301 301 301 304 304 301 300 303 304 307 309 310 311 311 312 313 313 316 316 316 325 324 323 323 324 323
300 301 302 303 304 303 302 301 301 299 298 299 299 300 301 302 300 300 301 302 305 310 307 308 311 312 312 314 315 317 317 324 323 322 320 319 320 321
300 301 302 303 302 303 303 303 302 299 299 298 300 300 302 300 300 300 300 300 298 312 309 307 312 311 311 315 317 320 321 321 320 319 319 318 318 319
301 301 301 300 301 301 302 302 303 303 304 302 300 300 298 300 301 301 302 301 301 309 310 307 313 310 314 315 315 320 320 318 317 317 316 316 317 317
301 301 301 300 301 300 300 301 301 302 303 303 302 302 302 304 304 304 303 304 306 312 313 305 312 310 313 314 319 318 317 316 315 315 315 315 315 315
301 301 301 300 301 302 301 301 300 301 304 306 307 308 308 308 307 305 305 304 304 307 312 311 311 309 313 318 318 316 315 314 314 315 315 314 313 313
300 301 301 301 301 302 302 300 298 300 302 302 304 306 305 304 307 313 311 307 306 307 314 310 314 316 313 317 317 316 314 313 312 312 313 312 312 313
299 299 301 300 301 303 302 300 300 303 303 303 301 302 302 302 304 309 315 311 308 311 318 316 318 314 311 311 313 314 314 312 311 312 311 310 310 312
299 301 301 301 302 303 301 301 302 303 302 301 300 299 299 300 304 311 316 316 318 316 321 321 316 313 309 308 308 312 313 314 313 311 312 311 309 309
301 301 301 302 302 301 299 300 301 301 300 298 298 298 299 302 307 312 318 320 321 320 323 320 316 314 313 308 307 309 309 310 310 309 311 311 311 311
300 301 301 301 301 300 299 300 301 300 300 298 298 299 301 304 308 312 315 317 317 317 322 320 319 314 309 309 309 308 308 305 309 309 310 310 310 310
300 300 299 299 299 298 298 299 300 300 300 299 298 299 300 302 303 308 315 315 311 313 314 317 315 315 312 311 309 307 308 308 309 308 309 307 308 310
298 297 297 298 297 296 296 297 299 298 300 298 298 298 299 301 302 305 314 313 309 311 311 312 312 310 309 310 310 309 309 308 309 310 309 306 305 309
296 297 296 296 296 296 296 297 297 299 301 299 297 298 299 300 301 303 313 311 310 309 310 313 313 311 307 305 310 305 310 309 309 308 308 308 306 307
296 295 295 296 296 295 296 296 298 298 300 299 297 297 298 299 300 302 306 309 308 308 309 314 315 316 311 308 309 310 303 310 309 308 308 307 306 305
295 295 296 296 296 296 297 297 298 298 299 299 297 297 298 299 299 300 301 308 308 310 306 310 313 313 310 313 310 308 309 301 308 309 307 305 304 305
295 295 296 297 297 297 298 298 298 299 299 298 297 297 298 298 298 299 300 310 311 311 310 308 309 311 311 310 310 309 307 307 301 300 300 302 306 304
295 296 296 297 297 298 298 299 298 298 299 299 297 297 298 297 298 299 300 305 312 312 311 307 308 310 312 314 309 309 306 305 304 304 304 299 300 302

GFSNE_sfc_thetae_021.txt.gz
Theta_e
305 306 304 304 304 304 303 301 298 294 295 299 300 305 306 307 309 307 306 311 311 313 313 311 312 313 314 315 316 316 318 319 320 328 327 337 338 337
305 304 303 303 303 304 303 302 301 299 295 301 302 304 305 305 307 307 306 311 312 311 313 312 311 312 313 314 314 315 316 317 318 324 326 325 328 336
305 304 302 303 303 303 303 302 302 302 298 301 303 305 303 303 304 306 307 306 307 310 311 313 313 312 312 313 313 314 314 316 316 317 318 323 330 334
303 303 301 301 302 303 302 302 302 303 301 298 301 302 302 303 305 304 303 305 307 308 310 311 312 313 312 312 313 313 314 315 315 316 319 323 333 332
302 301 301 301 299 301 302 302 303 302 302 300 299 302 303 304 303 303 303 304 306 309 310 311 311 313 313 313 313 313 313 314 318 316 318 322 330 330
301 302 300 300 300 301 301 302 301 301 301 300 299 299 301 302 303 301 302 305 303 305 308 309 311 312 312 314 313 313 312 314 315 317 315 317 327 326
301 300 301 302 304 304 302 301 301 299 299 298 298 298 298 299 299 301 300 300 301 304 304 305 307 309 310 312 312 312 312 313 313 317 317 318 322 322
300 300 301 304 304 305 304 304 303 300 298 297 296 296 297 300 300 299 299 298 296 304 303 303 309 308 310 311 312 312 313 310 311 315 317 320 319 320
300 301 301 301 302 300 302 303 303 304 304 301 298 298 299 301 300 299 300 299 299 303 303 301 308 307 311 312 313 313 313 313 314 315 317 318 318 319
302 302 302 301 301 300 300 299 301 302 303 302 302 303 304 304 304 304 303 302 303 304 306 300 308 307 311 311 313 313 313 314 315 317 317 317 316 316
302 302 302 301 302 301 300 300 300 301 304 307 306 308 308 308 307 303 300 300 303 305 309 306 308 308 309 310 314 314 315 316 316 316 316 315 314 314
301 301 304 301 302 301 300 300 299 298 300 301 302 304 304 304 306 303 303 305 305 304 310 307 308 308 306 312 315 317 316 314 314 314 314 313 312 312
298 299 301 303 301 301 303 301 299 300 301 301 301 301 301 301 302 304 306 310 306 305 313 311 309 310 312 312 314 316 315 314 313 312 311 311 310 312
298 300 302 301 301 302 303 303 302 301 301 300 299 298 299 299 301 304 308 313 316 312 316 315 314 313 311 309 307 311 312 312 311 310 310 311 310 311
300 302 301 301 302 302 303 301 301 301 299 298 298 297 299 300 303 305 310 315 318 320 320 318 314 314 313 310 308 308 307 308 310 309 309 309 310 311
300 300 300 301 301 301 301 301 300 300 299 298 298 298 300 301 301 304 307 316 314 314 317 317 316 314 311 310 309 306 306 304 308 308 310 310 310 310
300 300 299 299 298 299 299 299 300 300 299 300 298 297 298 300 300 304 306 314 313 311 309 312 315 315 313 310 305 305 304 305 308 308 307 306 307 308
298 297 296 297 296 297 297 297 298 298 298 299 299 297 297 298 299 302 305 311 312 310 308 309 310 309 308 308 308 305 305 306 307 307 307 304 304 308
296 296 296 296 297 296 297 296 296 298 297 298 298 297 298 298 299 300 302 311 309 311 310 311 310 308 304 301 308 306 305 306 306 306 307 305 303 305
296 296 296 296 296 296 296 296 296 297 296 298 299 297 297 298 298 298 300 302 308 310 310 311 311 312 308 305 305 306 303 307 306 306 305 303 305 306
296 296 296 296 296 297 297 298 298 297 299 299 299 297 297 297 297 298 299 301 308 309 310 311 314 315 314 312 307 305 306 302 308 307 305 304 302 303
295 295 296 297 297 298 298 299 299 297 298 299 299 297 297 297 297 297 298 299 305 309 308 309 313 314 311 309 306 305 304 301 300 300 300 302 304 300
295 295 296 296 298 298 298 298 298 298 299 299 299 298 297 296 297 297 298 299 300 310 308 307 310 312 312 310 307 304 303 302 303 302 300 299 300 301

GFSNE_sfc_thetae_024.txt.gz
Theta_e
299 299 297 298 297 297 296 295 291 287 288 291 293 297 299 300 303 302 301 308 311 313 315 313 311 311 313 313 315 316 318 319 319 320 321 325 331 338
299 298 297 297 297 297 296 295 294 291 289 293 295 297 299 302 303 303 300 310 310 311 312 312 313 312 312 313 314 315 316 317 317 319 319 325 327 327
298 298 297 297 296 296 295 295 294 294 292 294 297 298 297 297 299 299 302 300 302 309 310 312 313 313 312 313 314 314 314 315 316 317 318 319 325 327
298 297 297 299 295 296 295 294 294 295 294 293 294 295 296 297 297 298 301 303 301 307 310 310 312 313 313 313 313 313 314 314 315 316 318 318 321 324
297 297 296 296 294 294 294 295 296 299 295 294 294 295 295 296 297 297 299 300 301 307 310 311 311 310 313 313 313 313 313 314 314 315 317 316 321 322
298 297 296 296 294 293 295 295 296 294 294 293 294 294 295 296 297 297 297 300 301 304 307 308 309 310 311 313 314 313 312 313 314 314 316 315 318 319
296 297 297 299 303 300 298 296 295 294 293 293 293 294 295 294 294 296 296 299 300 301 302 303 304 305 306 309 312 313 312 313 314 314 317 315 317 318
294 295 295 304 302 305 306 306 302 294 293 293 296 295 295 295 297 297 298 297 295 303 302 301 304 304 306 307 311 312 313 313 313 314 315 315 315 317
295 295 296 299 303 297 301 303 302 304 303 298 297 295 295 296 298 298 299 299 299 303 303 300 304 303 306 309 312 313 313 312 312 312 315 314 316 320
295 295 295 295 297 297 296 295 296 296 298 299 298 297 298 300 302 303 301 301 302 303 304 298 303 302 305 308 312 312 312 312 310 311 313 316 317 318
297 297 296 295 301 302 296 295 295 296 303 304 304 305 306 307 307 303 300 298 297 299 305 303 303 302 305 306 308 312 311 311 310 312 315 316 315 316
296 296 305 298 302 302 295 294 293 295 295 296 297 300 303 303 306 303 301 298 298 302 307 303 304 305 302 306 308 310 310 311 311 312 315 314 314 312
295 295 297 305 303 302 302 296 297 298 297 296 296 297 300 300 301 302 303 302 302 303 309 308 306 304 305 304 306 309 310 310 313 314 313 312 311 311
294 295 299 305 303 302 301 303 303 301 296 294 295 297 298 298 300 301 303 306 308 309 313 311 308 303 307 309 306 312 313 314 314 312 312 311 311 311
297 301 303 303 302 300 302 302 302 295 294 292 294 296 297 299 301 302 304 307 313 316 316 316 314 312 311 308 308 308 308 310 311 309 308 308 308 308
301 297 299 300 301 300 299 299 296 295 294 293 297 297 298 299 299 302 302 305 312 313 315 315 314 312 309 309 308 306 307 304 306 306 306 306 307 308
297 295 295 295 294 294 294 294 294 294 293 293 297 295 296 298 299 301 303 308 309 310 310 311 312 311 310 308 304 304 304 304 306 306 306 303 303 306
296 293 292 292 292 292 291 291 292 294 292 293 298 295 296 297 298 300 302 307 308 309 309 309 307 306 306 306 307 303 304 304 306 306 305 303 299 302
292 292 292 293 292 291 291 291 291 292 293 295 298 295 296 297 298 298 300 302 308 309 309 309 307 305 302 299 304 304 305 305 305 303 302 300 299 301
293 292 292 292 291 291 291 291 291 292 293 297 298 296 296 297 297 297 298 299 305 309 308 309 308 307 303 301 300 301 302 305 305 302 299 299 302 305
292 292 292 292 291 291 292 292 293 295 296 297 297 297 296 297 296 297 298 299 302 309 308 309 312 311 308 307 302 302 303 300 305 304 301 301 298 299
292 292 293 294 292 292 292 292 293 296 294 295 297 296 297 297 296 296 297 297 299 302 308 311 313 310 307 304 302 301 299 299 300 299 300 300 300 297
291 293 294 294 293 292 292 293 293 294 294 293 296 295 296 295 296 296 297 297 298 300 308 310 310 311 309 305 303 302 300 300 301 299 298 299 300 301

GFSNE_sfc_thetae_027.txt.gz
Theta_e
297 296 296 295 295 295 294 293 291 286 286 290 291 294 296 298 301 302 300 306 311 311 312 312 311 311 311 312 313 313 314 316 317 318 321 321 322 325
298 296 295 295 295 295 294 293 292 290 287 291 292 294 297 300 301 302 300 307 308 309 311 312 311 310 311 311 312 312 314 316 316 317 319 321 321 324
297 298 296 296 295 294 294 293 292 291 289 291 294 296 295 295 297 297 299 297 298 308 309 311 312 312 312 311 312 312 314 315 315 316 317 319 320 322
297 297 297 298 294 294 293 293 292 292 292 290 292 294 294 295 295 295 298 300 299 306 308 309 311 312 313 313 313 313 313 314 315 315 316 318 319 320
297 297 296 295 293 293 293 293 292 296 293 292 291 293 293 294 294 295 296 298 300 305 308 310 311 313 313 313 312 313 313 313 314 314 314 316 318 319
298 297 296 295 293 292 293 292 294 293 293 292 292 292 292 294 293 294 294 297 297 301 305 307 309 310 311 312 312 312 312 313 314 314 314 315 316 317
297 298 297 298 304 298 295 294 294 293 292 292 291 292 293 292 291 294 294 295 297 298 299 301 302 303 304 308 309 311 311 313 314 314 314 313 315 316
295 295 296 305 304 306 306 306 299 294 292 291 292 292 293 294 295 294 294 294 293 301 300 300 303 302 304 305 308 310 310 312 313 313 313 314 315 317
294 294 295 300 302 297 304 306 305 304 303 295 292 293 294 295 293 295 295 297 298 302 302 300 304 302 305 305 309 311 312 313 312 312 312 314 315 317
294 293 293 294 297 296 294 294 294 295 296 298 296 295 294 297 298 299 300 301 302 302 303 298 303 301 305 306 309 310 311 312 311 312 313 314 313 315
294 294 294 294 303 304 295 293 293 294 301 305 304 304 305 305 304 301 299 298 297 299 302 301 301 302 304 303 305 310 311 311 311 312 313 314 312 313
294 296 303 296 305 304 294 293 292 293 295 294 295 297 300 299 304 302 300 297 297 296 302 301 303 302 300 305 306 308 309 311 310 311 311 313 312 317
294 295 299 305 305 304 302 294 295 297 298 294 294 294 296 299 300 300 301 300 298 298 304 306 304 303 302 303 305 308 309 309 307 309 311 312 313 314
294 294 297 307 305 304 301 302 303 302 294 292 292 293 294 297 298 300 302 303 305 306 308 308 306 304 303 302 302 306 306 307 308 309 311 313 312 312
295 299 305 307 304 302 303 302 301 294 292 291 290 292 296 297 299 301 303 306 311 315 313 310 308 305 304 303 301 303 303 307 310 310 311 310 310 309
304 302 302 301 301 299 299 298 295 293 292 291 290 294 296 297 298 301 301 305 311 309 312 314 311 308 305 304 304 303 306 307 310 310 309 308 307 307
297 295 294 294 293 293 293 293 292 292 291 290 291 294 294 297 298 300 301 306 309 306 305 308 311 312 311 310 307 307 307 307 308 307 307 304 303 305
295 293 293 293 291 291 290 290 290 292 291 290 293 294 294 296 298 299 301 303 308 307 305 306 306 305 305 306 308 305 305 305 306 306 305 303 301 302
293 293 292 292 291 290 290 289 289 290 291 291 297 293 295 297 297 297 299 301 308 308 307 308 306 304 300 298 304 304 305 304 304 302 303 300 299 300
294 292 292 292 291 290 290 290 289 291 294 294 297 293 295 296 296 296 297 298 305 308 307 308 307 305 301 300 300 300 302 304 304 301 299 301 302 304
292 292 292 291 291 290 291 291 291 292 294 293 296 293 295 296 295 296 297 298 301 306 306 308 307 308 306 306 301 300 299 299 302 302 301 300 297 297
292 291 291 291 291 291 291 291 291 292 292 292 293 292 294 295 295 296 296 296 298 300 308 307 307 306 305 303 300 298 297 298 299 299 299 300 300 297
291 291 291 291 291 291 291 291 291 292 292 291 292 292 293 293 295 296 296 297 298 300 306 306 307 307 304 303 302 300 299 300 299 298 298 299 300 302

GFSNE_sfc_thetae_030.txt.gz
Theta_e
300 298 297 295 295 294 293 292 290 285 286 289 290 292 294 296 299 301 300 306 310 310 310 310 311 311 312 312 312 313 313 314 314 317 319 319 320 322
300 297 295 294 295 294 293 292 291 289 286 289 291 292 294 299 300 301 300 307 309 309 309 311 309 310 311 311 311 312 312 312 313 315 317 318 319 320
300 298 296 295 295 293 293 292 291 290 288 289 291 293 293 294 296 296 298 296 297 307 308 308 310 310 310 310 311 311 312 312 313 315 316 315 318 319
298 298 296 297 294 293 293 292 291 291 290 288 290 292 293 294 294 294 297 299 297 304 307 308 308 310 312 312 313 313 312 312 313 314 316 316 318 318
299 298 297 296 293 292 292 291 291 294 291 290 290 292 292 293 293 293 294 295 298 303 306 308 308 309 312 313 312 312 313 313 313 314 314 315 316 318
299 299 297 297 296 293 293 292 292 291 291 291 291 291 292 293 292 292 292 293 294 298 302 305 307 308 309 311 312 312 311 311 312 314 314 314 314 315
297 298 297 299 304 299 295 291 291 291 291 291 290 290 290 291 290 291 290 293 295 296 296 298 299 300 303 307 309 310 310 311 312 313 313 313 313 314
296 296 297 305 306 308 306 303 297 292 291 291 291 290 290 292 292 291 293 292 291 297 296 296 301 301 302 303 307 309 309 310 311 313 313 313 313 313
297 296 296 300 304 300 307 307 306 307 304 294 291 291 290 292 292 292 293 293 293 297 299 298 303 302 304 305 309 309 310 310 310 311 312 313 313 314
296 295 296 295 298 296 294 294 294 294 296 297 294 294 294 294 293 296 296 298 300 301 303 297 302 301 303 305 308 309 310 310 310 311 313 312 312 314
295 295 295 294 303 305 294 292 292 293 300 304 304 305 305 304 303 299 297 296 296 298 302 300 301 301 303 303 306 309 309 310 311 312 312 312 313 314
293 294 301 296 306 306 293 292 291 292 293 294 295 296 298 297 302 299 298 296 296 295 301 299 299 300 299 304 305 306 307 310 310 311 311 312 312 311
293 295 297 305 308 306 300 293 293 295 297 294 292 292 293 294 296 298 300 299 296 296 302 302 302 301 302 301 303 306 307 309 309 309 310 311 310 310
294 296 299 307 308 306 301 301 303 301 293 291 290 291 291 294 296 298 300 302 303 302 304 305 302 303 302 301 300 306 307 308 308 306 306 311 310 312
296 299 304 307 307 303 303 303 301 293 290 289 289 289 292 296 297 300 302 304 307 312 310 306 306 305 304 301 300 302 303 305 305 305 307 310 312 312
302 301 303 302 301 299 298 297 294 292 291 289 288 290 294 295 297 300 300 302 307 308 309 309 308 306 303 303 302 302 304 300 305 308 311 310 311 311
300 298 296 294 293 292 292 292 291 291 289 289 289 292 293 295 298 300 300 302 305 305 306 306 308 307 305 303 302 302 304 304 307 308 307 304 305 306
297 294 292 291 290 290 289 289 289 290 289 289 294 292 292 295 297 299 300 301 305 305 305 306 306 305 306 306 307 305 307 306 307 307 306 304 302 301
293 292 292 291 290 289 289 289 288 289 289 291 295 291 293 296 296 297 298 300 307 306 306 307 306 304 300 298 304 304 306 306 305 305 305 302 303 301
294 293 291 290 289 289 289 289 288 290 291 293 295 291 293 295 295 296 297 298 303 307 305 305 304 304 302 301 301 301 301 306 305 302 299 300 301 304
293 292 291 291 290 290 290 290 290 291 291 292 293 291 292 295 295 296 296 298 300 304 303 303 304 307 306 306 301 299 299 298 301 302 302 300 297 297
293 290 291 291 291 290 290 290 290 291 291 291 290 290 292 294 294 295 296 296 297 302 303 305 306 305 304 302 299 297 297 298 299 299 299 299 299 296
292 291 291 292 291 291 290 290 290 291 290 290 290 290 291 293 294 295 296 297 298 300 304 303 305 305 303 301 300 298 297 299 298 297 298 299 300 301

GFSNE_sfc_thetae_033.txt.gz
Theta_e
303 300 299 297 295 294 292 292 291 286 287 289 290 290 292 294 298 299 298 305 310 310 310 310 311 312 312 313 313 314 314 314 315 315 316 316 318 320
303 301 298 295 296 294 293 292 291 290 287 289 289 290 292 297 298 300 300 307 309 309 310 311 310 311 311 311 311 312 313 313 314 314 314 315 318 318
303 301 298 297 296 295 293 291 291 290 289 289 289 291 291 292 295 296 298 296 296 307 308 308 309 309 310 310 311 311 311 311 313 313 314 314 317 317
302 301 299 297 296 295 294 292 292 290 290 288 289 290 291 292 293 293 296 299 296 303 306 307 308 308 309 310 311 312 312 312 313 313 313 315 316 318
303 301 300 296 295 294 294 292 291 293 290 289 289 290 291 292 292 293 293 293 296 303 306 307 308 308 309 311 312 312 312 312 314 314 313 313 314 316
304 303 301 297 296 294 294 293 292 291 289 289 289 290 291 292 291 291 291 292 294 298 301 304 306 306 308 308 309 311 311 312 313 313 313 313 313 314
305 303 301 301 305 300 296 293 291 290 289 289 289 289 290 290 290 291 290 293 293 294 295 296 297 298 299 305 307 310 310 311 313 313 313 312 313 313
302 301 300 305 306 307 306 303 297 291 289 289 289 290 290 290 291 291 291 289 289 294 294 294 297 297 298 299 305 307 309 310 311 312 312 312 313 313
303 301 299 301 304 302 308 307 305 304 299 293 291 291 290 291 291 290 290 291 292 295 295 294 298 297 301 302 307 308 309 309 309 310 311 311 313 313
302 300 298 299 301 300 300 297 297 299 300 301 294 293 292 293 293 295 294 294 296 298 299 295 300 300 303 304 308 309 309 309 309 310 310 311 312 313
300 299 298 298 304 307 297 294 292 293 302 303 303 303 305 306 304 298 295 293 292 296 300 298 299 300 302 303 305 308 309 309 309 310 311 311 311 312
298 298 303 299 308 307 294 292 290 290 292 293 294 297 299 295 302 297 295 292 294 294 300 298 299 299 298 303 304 305 306 308 308 309 311 312 311 310
295 295 298 305 310 306 299 292 292 293 296 294 293 291 291 292 293 294 296 296 295 295 301 301 300 300 299 301 303 305 306 306 307 309 310 310 310 311
295 296 299 308 308 304 298 302 303 301 293 290 289 289 289 290 294 296 298 299 300 299 301 302 300 301 300 300 299 303 305 307 309 308 308 310 311 311
296 299 307 308 308 304 304 304 302 292 290 289 288 287 288 293 295 298 301 303 305 307 308 307 302 304 303 301 301 303 304 306 307 306 307 309 309 311
301 304 305 304 302 302 299 297 293 291 290 288 287 288 291 294 296 299 299 301 306 303 306 306 307 305 301 302 303 302 304 302 304 305 308 311 312 313
300 299 297 296 294 293 291 290 291 290 288 287 287 290 292 295 296 299 300 302 305 303 303 305 305 305 304 303 301 303 302 303 304 307 308 307 308 309
297 295 294 293 291 290 289 288 289 289 288 288 290 290 292 294 296 298 300 302 304 303 302 303 303 303 303 304 306 302 303 305 308 308 307 303 301 304
294 293 292 291 290 290 288 288 287 288 289 291 290 290 293 295 296 297 299 301 304 304 304 305 303 300 298 296 304 303 304 306 306 306 306 305 302 302
293 292 291 291 291 290 288 288 288 289 290 291 290 290 293 294 295 296 297 299 304 304 304 304 304 302 300 300 301 300 301 306 304 302 301 302 303 304
293 292 292 291 291 290 289 290 290 290 290 289 289 291 293 294 294 296 297 300 304 304 302 302 304 307 305 305 300 298 299 298 303 303 303 302 300 299
293 292 291 291 291 290 290 289 289 289 289 289 289 291 293 294 294 295 296 297 301 303 303 304 305 305 303 301 298 298 298 300 299 299 299 299 300 298
292 291 291 292 291 290 290 290 289 289 289 289 288 289 292 292 294 295 296 298 299 303 303 303 303 304 301 301 300 299 299 299 296 297 299 299 299 301

GFSNE_sfc_thetae_036.txt.gz
Theta_e
303 302 301 300 298 297 294 293 295 287 287 290 291 291 292 294 299 301 300 305 310 311 311 311 311 312 313 314 314 315 315 315 316 316 317 317 317 317
303 303 302 301 298 298 295 294 293 293 289 290 289 290 291 295 298 300 299 306 309 311 311 312 311 311 312 312 313 313 313 313 315 315 315 316 316 315
302 301 301 301 299 297 296 293 291 291 292 289 290 290 291 292 295 296 299 299 299 309 309 309 309 310 310 310 311 311 312 312 313 314 314 315 315 315
302 301 301 302 299 298 296 293 294 291 291 289 289 289 290 291 293 293 296 299 297 303 308 308 308 308 308 309 310 311 312 312 312 313 313 315 315 314
301 301 301 301 299 297 296 295 294 294 290 290 289 290 290 291 292 292 293 294 296 302 306 307 308 308 308 309 311 311 311 312 313 312 313 314 314 314
301 302 302 301 300 298 296 296 294 292 290 289 289 289 290 291 291 291 291 292 294 298 301 304 305 306 307 307 308 310 310 311 313 313 313 314 313 313
301 302 302 303 307 303 298 296 293 293 290 290 288 289 289 289 289 291 290 292 293 294 295 296 296 297 299 303 306 308 309 310 311 313 313 312 313 313
299 301 303 307 307 310 309 306 298 293 291 291 288 288 288 290 290 290 290 290 289 294 293 293 296 295 297 298 303 305 306 309 311 312 312 313 313 313
300 299 302 305 306 304 309 310 306 305 301 293 290 290 289 291 291 290 290 290 291 295 294 293 297 295 298 300 304 305 306 309 309 310 311 311 312 313
300 299 301 302 302 302 302 303 300 300 300 297 293 292 293 293 293 293 293 293 294 296 296 293 297 296 300 301 304 306 308 308 308 310 310 311 311 311
299 299 302 301 303 307 301 299 296 295 305 305 300 302 303 303 297 294 294 292 292 293 296 295 296 297 301 302 304 308 308 308 309 309 310 310 310 311
298 300 305 302 305 307 301 298 295 292 295 294 295 299 301 298 302 297 294 292 291 291 297 296 298 299 297 303 303 304 306 308 308 309 309 310 310 310
298 299 300 304 306 306 306 298 297 293 297 291 292 292 291 291 292 292 293 293 293 293 300 301 300 299 299 300 303 304 305 305 306 308 309 309 309 309
299 299 300 306 305 306 302 303 303 298 293 291 290 289 289 289 290 292 295 297 298 297 300 301 299 299 299 298 300 304 305 306 306 306 308 310 310 310
298 299 302 304 306 305 304 305 301 293 290 288 288 287 288 289 291 295 298 300 302 305 306 305 300 301 301 301 300 302 302 305 307 307 308 309 308 310
300 300 303 303 302 303 301 297 292 290 289 288 287 287 289 291 294 298 299 300 303 304 306 304 303 303 302 302 302 301 304 302 306 307 308 308 309 310
301 302 299 296 295 293 290 290 291 290 287 287 288 289 291 294 296 299 300 302 304 302 302 304 305 305 305 304 301 303 303 303 306 306 307 307 309 311
299 296 294 293 291 289 289 289 289 290 288 289 289 289 292 295 296 298 300 304 302 302 302 302 303 302 303 304 306 302 303 304 306 308 307 304 303 307
295 293 292 290 290 290 289 289 288 288 289 289 288 290 294 295 296 297 300 303 302 302 302 303 302 300 298 297 302 302 303 305 306 305 306 305 303 305
293 291 290 291 290 289 289 289 289 290 289 288 289 292 294 294 295 296 298 302 303 303 303 303 300 301 300 299 300 301 302 306 304 302 301 302 303 305
292 291 291 291 290 290 291 291 291 290 288 288 291 292 293 294 295 296 298 304 304 302 301 301 302 306 305 305 301 298 299 298 304 304 304 302 301 301
292 291 291 291 292 292 292 291 289 288 287 289 291 292 293 294 294 296 298 302 302 303 302 304 305 304 302 300 298 297 298 300 300 299 299 300 300 297
292 292 291 292 292 292 291 290 288 287 287 288 290 291 292 293 295 296 298 301 303 303 303 302 303 303 302 301 300 299 299 299 299 298 299 299 300 301

GFSNE_sfc_thetae_039.txt.gz
Theta_e
308 308 307 307 306 303 304 305 305 302 302 302 302 303 304 304 305 307 308 310 313 315 316 315 314 313 314 314 315 316 316 316 317 317 318 318 318 319
307 308 308 308 308 303 303 301 305 305 303 305 302 303 303 302 305 306 308 310 312 313 313 314 313 313 313 313 313 314 314 315 315 315 316 317 317 317
306 306 307 308 307 306 303 300 301 303 303 306 303 302 301 302 302 307 307 307 308 310 311 313 313 312 311 312 312 312 312 313 314 314 315 316 316 317
304 304 304 306 307 307 303 300 299 301 300 303 301 299 301 301 303 304 303 304 305 306 310 311 311 311 310 310 311 311 311 311 312 313 314 315 315 316
303 303 303 304 305 306 303 301 298 302 297 303 301 300 299 300 300 302 302 302 303 305 307 309 309 309 309 310 311 311 311 312 312 312 313 313 314 315
302 303 303 304 304 305 305 300 300 300 299 300 301 299 299 299 301 299 299 301 301 302 304 305 306 307 308 308 310 311 310 311 312 312 312 313 313 314
302 302 304 305 308 308 305 303 301 297 298 298 299 298 298 297 297 300 299 301 302 303 303 303 304 304 305 307 308 309 309 310 311 312 313 312 313 313
300 301 303 305 306 308 310 309 302 297 296 296 300 298 298 299 300 299 299 298 296 304 301 301 303 301 302 303 304 305 306 308 310 311 311 312 313 314
299 300 301 301 304 305 308 311 310 306 304 299 300 299 300 300 300 299 299 299 299 301 301 298 302 301 303 303 304 304 305 307 308 309 310 311 313 314
299 300 299 300 302 304 305 306 306 308 306 304 302 302 302 302 301 301 301 301 301 301 302 297 301 299 302 303 305 304 305 306 307 309 310 311 311 312
300 299 300 300 303 305 303 304 303 304 309 308 306 305 303 303 302 302 299 298 297 299 303 299 299 299 302 304 306 306 306 307 308 308 310 310 310 311
299 300 302 301 304 305 302 302 300 299 302 304 300 303 305 305 304 303 303 299 299 296 300 298 300 300 298 306 307 307 306 307 307 308 309 310 310 309
297 299 301 303 304 305 307 303 302 301 303 303 302 303 303 303 303 303 303 301 298 297 302 301 300 300 299 300 304 305 307 308 308 307 308 308 309 309
298 299 301 303 304 305 307 306 306 303 302 299 298 299 299 298 299 298 299 300 301 299 300 301 298 299 299 298 298 304 305 306 306 306 307 310 309 309
301 302 302 303 305 307 308 306 305 300 298 297 297 297 297 298 298 299 301 300 299 299 302 302 299 300 300 299 300 302 302 304 306 306 308 309 309 311
302 302 303 303 306 303 304 302 299 299 298 297 296 296 298 298 299 300 298 300 302 306 308 305 306 301 299 301 303 302 304 302 306 307 309 310 311 312
300 300 300 299 297 296 295 297 297 296 294 295 296 297 296 298 297 299 300 302 304 303 303 304 304 304 304 304 301 303 304 304 307 307 308 307 310 312
298 296 295 295 294 293 293 293 294 295 296 296 296 296 296 296 297 299 301 305 303 303 302 303 304 303 303 304 306 303 305 305 307 308 309 306 306 309
295 295 294 294 293 293 292 293 294 295 295 295 296 295 295 296 297 299 304 305 304 303 303 304 303 302 299 297 303 303 305 307 307 308 307 305 305 307
295 294 293 294 292 292 294 294 294 294 294 295 295 294 295 296 297 298 305 305 303 303 303 303 303 303 301 299 301 303 301 307 305 302 301 303 304 306
294 294 293 292 294 294 294 294 294 293 293 294 292 293 294 295 296 298 305 304 304 304 302 301 304 307 306 306 301 299 301 298 303 304 304 303 302 302
293 293 294 294 295 294 293 293 292 292 292 292 292 293 294 296 296 299 306 305 304 304 304 305 306 307 303 301 298 297 298 301 301 300 300 301 305 299
292 293 294 294 294 294 293 293 292 291 291 291 292 293 294 295 297 300 304 304 304 304 304 303 304 307 304 303 301 299 299 299 300 299 299 299 301 302

GFSNE_sfc_thetae_042.txt.gz
Theta_e
308 309 310 311 311 310 310 307 306 300 307 311 309 311 311 311 312 311 311 315 316 318 318 319 319 316 317 317 317 317 317 318 318 318 319 319 319 319
307 307 308 309 311 312 311 306 307 305 302 311 314 312 310 309 312 310 311 316 316 318 318 317 318 316 315 315 315 315 315 316 317 317 317 317 317 318
306 306 307 308 308 310 312 310 307 306 300 307 312 313 310 309 308 309 311 310 311 316 317 317 316 316 316 315 314 314 314 314 315 316 315 315 316 318
304 305 306 306 306 309 310 310 308 308 302 301 309 311 308 308 308 307 307 308 310 313 314 315 315 315 315 314 314 313 313 313 313 314 314 315 316 317
303 305 305 305 305 306 307 308 309 308 305 303 303 306 308 308 307 307 308 308 307 312 311 312 314 314 314 313 312 312 312 312 312 312 312 313 315 315
304 305 304 305 304 305 305 306 307 307 306 301 299 301 306 306 306 304 304 306 304 304 307 309 310 311 312 312 312 311 310 311 312 312 312 313 313 314
303 303 304 305 306 306 305 305 307 305 306 304 298 300 304 303 302 304 303 303 304 306 304 305 306 307 308 309 309 310 310 311 312 312 312 312 312 312
301 302 303 304 304 307 308 309 308 305 304 303 299 302 303 304 304 304 303 302 300 307 304 304 306 305 307 307 308 309 310 310 310 310 311 311 312 313
301 302 301 301 304 303 306 308 308 310 309 307 300 302 301 305 305 305 304 304 302 305 304 302 305 304 306 305 308 308 308 308 308 309 310 311 311 313
301 301 301 301 302 302 301 302 305 307 309 307 304 304 303 305 304 306 304 305 305 305 305 299 304 303 306 306 308 307 307 307 307 308 309 309 310 311
300 300 300 300 302 303 300 302 302 305 310 312 309 306 306 307 307 304 303 301 300 302 305 302 303 302 303 303 305 307 306 306 307 307 308 309 309 311
299 299 301 301 303 302 302 302 301 304 306 307 307 307 307 306 309 306 304 301 301 300 305 302 302 301 300 308 309 311 308 307 306 307 308 308 309 309
296 298 299 301 302 303 304 303 303 305 306 303 304 301 301 302 303 305 306 305 302 301 305 304 302 304 302 301 307 309 310 309 309 307 307 308 308 309
298 300 301 302 303 304 304 305 306 306 303 302 300 299 301 303 304 306 307 307 306 304 305 305 301 300 299 299 299 305 308 309 309 308 309 308 309 309
300 302 302 303 304 304 305 305 306 303 301 301 300 302 303 304 304 303 303 303 303 304 303 301 300 301 300 299 299 301 302 306 308 308 307 306 307 309
301 300 301 303 304 305 304 304 303 301 301 300 301 302 303 301 300 301 301 303 300 300 302 303 303 300 299 299 300 300 304 301 304 305 306 306 307 309
298 299 296 298 299 298 300 299 299 300 300 301 301 299 299 299 299 303 303 300 300 304 305 306 304 303 302 301 299 302 304 304 305 305 305 304 306 310
297 298 297 296 295 295 295 296 297 298 298 299 299 298 298 300 301 299 300 301 304 305 304 304 303 301 302 304 306 304 305 304 306 306 306 304 306 311
295 294 293 293 293 294 295 296 296 297 298 297 298 300 300 298 298 299 301 304 304 304 304 305 304 302 298 297 304 301 304 305 306 306 308 308 307 310
294 293 292 294 294 295 296 295 295 296 297 299 298 297 297 297 298 301 305 304 305 304 303 304 304 304 300 300 301 304 298 307 306 305 305 306 308 308
295 294 296 296 296 296 295 295 296 296 297 295 294 294 295 297 299 305 306 305 305 304 302 303 306 308 308 306 300 299 301 298 304 305 305 304 303 305
295 295 295 295 295 294 294 294 294 295 293 292 293 294 296 298 301 306 307 305 305 304 304 305 307 307 304 301 298 299 300 302 301 300 300 301 305 300
295 295 295 294 294 294 294 294 294 293 292 292 293 294 297 297 304 306 307 307 306 305 303 303 306 307 304 303 301 300 299 300 301 300 300 300 301 302

GFSNE_sfc_thetae_045.txt.gz
Theta_e
308 309 308 309 310 311 311 309 304 299 301 307 310 313 313 314 315 315 312 318 320 320 320 320 320 321 319 318 319 320 320 321 320 319 319 319 319 319
307 308 307 308 308 310 311 311 309 305 301 307 311 311 313 311 315 312 313 317 319 320 319 319 319 321 320 320 320 320 320 318 318 318 318 318 318 318
305 307 306 307 307 308 310 310 310 308 304 307 312 310 313 311 311 311 313 311 315 319 319 318 318 319 319 319 318 318 318 316 316 316 317 317 317 317
303 305 305 304 306 308 307 308 309 310 307 304 309 309 308 312 311 310 309 309 311 317 319 319 318 318 317 317 317 316 316 316 315 315 316 316 316 316
302 302 303 304 304 305 306 306 308 308 308 306 305 310 309 309 309 310 308 309 309 315 318 318 318 316 316 315 315 315 314 314 314 314 314 314 314 315
302 302 302 302 304 304 304 305 305 306 307 304 304 306 308 309 309 306 305 308 306 307 313 313 315 316 316 316 315 313 312 312 313 313 313 313 313 313
302 303 303 305 309 306 304 304 305 304 305 305 302 303 304 305 304 304 304 306 307 307 305 305 307 308 309 314 313 313 312 312 312 313 312 312 313 312
300 301 303 307 305 306 307 307 306 303 304 302 302 300 303 304 304 302 302 300 300 307 304 303 305 304 306 308 311 311 311 311 312 312 312 312 312 313
298 298 301 301 305 303 304 306 306 308 308 305 302 301 303 306 305 301 302 300 302 306 304 302 306 304 307 307 311 312 311 311 310 310 310 311 311 312
300 301 301 301 302 303 301 301 302 304 305 306 306 306 306 308 307 305 302 303 304 305 306 300 305 303 306 306 310 309 309 308 307 308 310 311 310 311
300 300 301 301 304 304 301 300 300 301 304 307 311 312 311 310 309 303 302 300 300 302 304 303 303 303 305 305 307 309 308 307 308 308 308 309 309 310
299 300 303 302 302 302 300 300 298 298 301 301 305 309 310 308 309 305 302 299 300 299 304 301 302 302 299 304 305 306 306 307 307 307 307 308 308 307
297 297 299 302 302 302 303 299 298 301 303 301 304 307 307 305 304 305 304 302 300 300 307 304 303 302 301 303 306 308 309 309 306 306 307 307 307 307
296 297 298 301 301 302 302 302 304 304 302 302 302 302 303 301 302 303 304 304 306 305 306 307 303 301 302 300 299 306 307 308 308 307 307 307 308 308
297 298 299 300 301 302 303 304 305 302 301 301 301 300 300 301 302 302 303 307 307 307 304 305 304 303 301 298 299 300 302 305 308 307 308 306 306 306
298 298 299 300 302 302 302 303 303 303 302 301 301 301 302 301 302 303 302 303 301 301 304 304 303 302 299 300 300 300 302 301 306 307 307 307 307 307
297 298 298 298 298 299 300 302 303 303 301 301 301 300 301 301 301 302 301 301 299 299 302 302 302 302 301 301 298 300 300 302 305 304 304 303 305 307
296 295 295 293 295 297 298 298 300 301 300 300 300 300 299 299 298 301 302 300 299 301 303 304 301 300 300 301 303 300 301 303 304 304 305 303 303 306
296 295 294 294 294 295 295 295 295 297 298 298 298 298 298 298 300 300 299 300 300 303 304 304 301 300 296 296 302 300 303 304 304 304 304 304 302 305
293 293 293 294 294 294 294 294 295 296 297 298 298 299 300 299 298 298 299 301 304 304 303 304 303 302 299 299 300 303 297 305 304 303 304 306 307 307
293 293 294 294 294 294 295 295 296 297 297 296 296 297 297 298 298 300 302 304 304 303 301 301 304 307 305 304 300 299 300 298 304 306 306 305 305 305
293 293 293 294 294 294 294 295 295 293 293 293 294 295 296 298 299 303 304 304 303 302 303 304 306 305 302 301 298 298 299 302 301 300 300 303 304 301
293 293 293 293 294 294 294 294 292 292 292 293 294 295 297 297 301 305 305 304 303 303 303 303 304 304 302 301 300 300 301 301 301 301 300 301 301 301

GFSNE_sfc_thetae_048.txt.gz
Theta_e
300 299 301 304 302 302 303 307 302 296 298 304 306 312 313 310 313 313 310 321 323 323 323 322 322 323 323 323 322 323 323 323 323 322 322 321 320 320
300 298 299 303 305 303 303 303 306 302 297 301 306 309 313 313 313 312 310 319 322 322 320 319 320 321 322 322 322 322 323 323 322 321 320 320 320 320
300 299 298 300 303 303 303 304 305 304 299 300 303 307 311 311 310 309 310 309 315 321 321 319 319 320 320 320 320 321 322 321 320 319 319 319 319 319
299 299 298 300 301 301 303 300 303 306 300 297 300 302 305 310 310 307 306 309 310 319 321 320 319 319 319 319 319 320 319 318 318 317 317 318 318 318
298 298 299 299 299 301 301 300 300 302 302 300 299 301 303 305 308 307 303 303 308 316 321 320 319 318 319 318 318 317 316 316 316 317 317 316 317 317
299 299 299 298 298 299 301 299 300 299 301 302 302 300 300 302 304 303 302 303 301 309 316 316 319 319 318 318 317 315 314 314 315 315 315 315 314 314
298 299 299 301 304 303 299 299 301 298 300 300 297 297 297 298 299 303 301 301 301 301 305 306 311 312 312 317 314 314 313 314 314 314 313 313 313 313
296 298 298 302 302 305 306 306 302 296 295 299 300 299 296 298 299 302 300 298 297 301 298 298 305 304 306 307 313 314 314 313 313 312 312 312 313 313
296 297 298 300 301 300 302 307 306 307 306 298 299 300 297 298 301 299 300 299 298 300 299 298 298 298 301 306 311 312 313 313 312 312 311 312 312 313
297 298 298 296 298 298 299 297 296 298 300 302 299 299 299 300 301 305 302 301 301 303 301 297 298 297 300 302 310 311 312 311 310 311 311 311 311 312
297 298 298 298 300 302 300 298 296 296 305 307 306 308 309 310 306 302 301 299 298 300 302 298 300 297 298 298 301 310 310 310 310 310 311 311 310 310
296 296 300 299 301 303 297 294 293 293 295 296 296 302 305 306 311 304 303 299 297 295 300 301 298 299 296 298 299 301 304 309 308 308 308 308 308 303
294 294 296 301 303 303 303 294 294 296 298 296 297 297 299 302 305 307 304 302 300 300 303 302 297 299 295 297 299 299 301 301 301 304 307 307 307 306
293 295 296 300 301 302 302 302 303 302 295 295 296 297 297 299 303 305 304 305 304 303 304 304 298 297 295 294 294 298 301 302 303 302 303 305 307 308
296 297 299 299 300 299 301 302 303 296 295 296 296 297 300 300 302 304 305 305 304 305 303 302 299 298 297 294 294 296 297 300 304 306 303 304 304 304
298 297 298 297 299 297 298 300 298 297 298 297 297 298 299 300 301 303 301 301 301 300 302 302 301 298 294 294 295 296 300 299 301 305 306 305 304 304
295 296 295 293 293 294 294 296 297 300 299 300 300 300 300 301 300 301 300 300 299 298 299 301 300 298 297 298 298 299 300 301 303 303 305 304 305 304
294 292 293 294 293 293 293 295 295 299 299 298 299 298 300 300 300 301 300 299 297 298 297 300 300 300 300 300 303 300 301 301 302 304 304 302 302 305
294 295 293 295 294 294 295 294 296 297 297 297 299 300 301 300 298 298 298 298 298 298 299 302 299 298 295 294 300 301 300 301 303 303 303 303 302 304
294 293 293 294 294 294 295 296 296 297 298 299 299 298 298 297 297 297 298 298 297 299 300 301 299 299 297 297 299 300 296 304 303 302 302 304 305 306
292 291 292 292 293 294 295 295 295 296 296 296 296 297 298 298 297 298 298 299 300 302 300 300 301 305 304 304 300 299 301 299 304 304 304 303 302 302
291 291 292 292 293 294 294 293 293 293 293 294 294 295 295 297 297 298 299 299 301 302 302 303 304 304 302 299 298 298 299 301 301 300 302 304 304 300
291 292 292 292 293 293 293 292 292 292 292 293 293 294 296 296 298 300 300 303 303 302 302 302 302 302 301 301 300 300 300 301 301 302 301 300 301 301

GFSNE_sfc_thetae_051.txt.gz
Theta_e
295 295 297 299 299 300 301 303 300 295 294 298 301 305 310 312 311 314 314 322 325 324 324 325 325 325 327 327 328 327 327 326 324 324 324 323 323 322
297 296 297 297 298 301 301 301 302 300 296 298 300 303 311 314 314 312 313 315 323 324 323 322 324 323 324 324 325 325 325 325 326 324 324 323 322 321
296 297 296 297 297 298 300 302 302 301 298 298 299 302 304 309 313 310 313 312 313 324 323 322 322 321 322 322 323 323 324 324 324 324 323 321 320 320
295 296 296 298 297 297 298 300 302 303 301 296 298 299 302 305 308 310 310 312 312 316 323 322 320 320 320 320 321 321 321 322 322 323 321 319 319 319
295 296 296 297 296 296 296 298 299 302 300 297 297 299 301 303 304 309 307 304 311 314 322 321 320 320 319 319 319 318 318 318 319 319 319 319 318 318
295 296 297 297 297 297 297 297 298 298 296 297 296 297 299 300 300 302 305 304 304 311 317 319 320 320 320 319 319 317 315 316 317 316 316 317 317 317
294 296 297 299 303 303 299 297 299 296 296 295 295 296 297 298 297 299 299 303 304 305 309 311 315 315 316 319 316 316 314 315 316 316 315 314 315 315
293 295 296 299 300 305 305 306 302 296 297 295 295 295 294 296 297 298 299 298 297 304 306 306 312 311 312 312 315 315 314 314 314 314 314 314 313 313
295 295 295 298 300 299 302 304 304 305 303 298 298 297 295 297 297 296 299 300 299 301 304 302 303 307 307 310 313 314 314 313 313 313 313 313 313 313
295 295 295 296 298 298 297 296 297 298 299 301 300 299 298 299 299 300 299 299 301 302 302 299 298 300 301 304 311 313 313 313 312 312 312 312 311 312
295 296 296 296 299 302 297 295 294 296 302 305 306 306 308 307 303 300 298 298 296 299 301 299 298 299 299 298 301 310 311 311 311 312 312 312 311 311
294 295 299 297 300 301 296 295 293 295 295 298 299 302 305 304 309 301 299 298 295 294 301 299 298 299 297 299 299 301 306 310 310 310 311 311 310 304
292 293 295 300 301 302 302 297 295 298 298 294 294 294 294 296 300 303 302 301 297 296 300 302 299 298 298 296 298 298 299 300 302 305 309 308 307 304
293 294 294 299 300 301 301 302 302 301 294 293 292 292 293 294 298 302 304 304 301 301 302 303 298 298 297 297 297 299 298 299 299 298 300 305 308 307
295 295 298 299 300 299 301 302 302 296 296 294 293 292 294 296 298 300 302 305 303 302 305 305 301 299 299 297 295 295 297 298 300 300 299 301 304 302
297 296 297 298 298 296 296 296 295 294 293 292 292 293 297 296 298 301 299 300 302 301 303 304 303 301 297 298 296 294 296 295 297 299 301 303 301 301
293 294 293 293 290 290 291 292 294 295 295 294 294 295 297 299 300 302 300 300 300 299 298 300 301 301 300 298 295 294 295 296 299 299 300 301 301 302
291 289 289 291 289 289 290 291 292 295 295 295 297 298 298 299 300 299 300 298 299 299 299 299 298 298 298 299 300 295 296 299 302 303 303 301 302 305
290 289 290 292 293 293 293 290 291 294 294 296 297 297 299 299 299 299 299 299 298 299 299 300 298 297 294 293 299 301 299 300 301 301 303 302 301 303
293 292 292 294 294 295 295 294 293 293 294 296 298 298 297 298 298 299 299 298 298 298 298 300 298 298 296 295 297 300 298 301 300 300 302 304 304 305
290 289 291 292 293 294 295 296 297 296 295 294 296 296 298 299 298 298 298 299 299 297 295 296 300 304 302 303 299 298 299 297 302 303 303 302 301 302
290 291 292 293 293 293 293 293 293 294 294 296 296 297 298 298 297 298 299 298 298 298 297 300 302 303 302 299 298 298 299 301 300 301 303 303 302 298
289 290 291 291 292 292 292 292 293 293 293 293 294 295 296 296 298 299 298 298 298 298 301 301 302 302 301 300 300 300 300 301 302 302 300 300 302 302